Regional Weather Roundup
Issued by NWS

Home | Current Version | Previous Version | Graphics & Text | Print | Product List | Glossary Off
Versions: 1 2 3 4 5 6 7 8 9 10 11 12 13 14 15 16 17 18 19 20 21 22 23 24 25 26 27 28 29 30 31 32 33 34 35 36 37 38 39 40 41 42 43 44 45 46 47 48 49 50

000
ASUS43 KTOP 212259
RWRKS

WEATHER ROUNDUP FOR KANSAS
NATIONAL WEATHER SERVICE GOODLAND KS
600 PM CDT THU SEP 21 2017

NOTE:  "FAIR" INDICATES FEW OR NO CLOUDS BELOW 12,000 FEET WITH NO
SIGNIFICANT WEATHER AND/OR OBSTRUCTIONS TO VISIBILITY.

KSZ001>006-013>018-027>032-041>047-220000-
NORTHWEST KANSAS

CITY           SKY/WX    TMP DP  RH WIND       PRES   REMARKS
GOODLAND       SUNNY     92  34  13 S26G33    29.66F
HAYS           SUNNY     98  51  20 S22G32    29.66S HX  95
HILL CITY      SUNNY     99  40  13 S21G35    29.65F
RUSSELL        MOSUNNY   96  60  30 S28G39    29.66F HX  96
$$

KSZ061>065-074>080-084>089-220000-
SOUTHWEST KANSAS

CITY           SKY/WX    TMP DP  RH WIND       PRES   REMARKS
DODGE CITY     SUNNY     97  51  21 S28G40    29.72S
ELKHART          N/A     91  41  17 S17         N/A
GARDEN CITY    SUNNY     95  39  14 SW26G35   29.72S
GREAT BEND     MOSUNNY   97  62  31 S21G36    29.70S HX  98
LIBERAL        SUNNY     94  46  19 S26       29.75S
$$

KSZ066>073-081>083-090>101-220000-
SOUTHEAST KANSAS

CITY           SKY/WX    TMP DP  RH WIND       PRES   REMARKS
CHANUTE        SUNNY     89  73  59 SE18G26   29.85S HX  97
COFFEYVILLE    SUNNY     89  73  59 S13       29.84S HX  97
HUTCHINSON     MOSUNNY   96  67  38 S23G37    29.73S HX 100
NEWTON         MOSUNNY   92  71  50 S25G33    29.78S HX  98
WICHITA INTL   MOSUNNY   93  72  50 S26G36    29.76F HX 101
WICHITA JABRA  MOSUNNY   91  73  55 S21G32    29.78S HX  99
WINFIELD       SUNNY     91  73  55 S18G32    29.81S HX  99
$$

KSZ007>012-019>026-033>040-048>060-102>105-220000-
NORTHEAST KANSAS

CITY           SKY/WX    TMP DP  RH WIND       PRES   REMARKS
CONCORDIA      SUNNY     92  69  47 S18G31    29.70S HX  97
EMPORIA        SUNNY     89  73  59 S18G30    29.80S HX  97
LAWRENCE       SUNNY     89  75  63 SE21G30   29.81F HX  99
MANHATTAN      MOSUNNY   93  72  50 S20G33    29.73F HX 101
OLATHE IND     SUNNY     87  73  62 S16       29.85F
OLATHE EXE     SUNNY     86  74  67 S17G24    29.85F
SALINA         MOSUNNY   98  68  37 S31G40    29.71S HX 103
TOPEKA BILLARD SUNNY     90  76  63 SE20G31   29.79F HX 101
TOPEKA FORBES  MOSUNNY   90  75  61 S17       29.80F HX 100
$$




USA.gov is the U.S. government's official web portal to all federal, state and local government web resources and services.